{"data":{"norad_id":56717,"epoch":"2026-05-25T05:11:22.528608Z","epoch_age_seconds":53543,"freshness":"FRESH","line1":"1 56717U 23068H   26145.21623297  .00000065  00000+0  12659-3 0  9991","line2":"2 56717  87.9254 248.5422 0002738  85.4432 274.7015 13.21825540148051","mean_motion":13.2182554,"eccentricity":0.0002738,"inclination_deg":87.9254,"raan_deg":248.5422,"arg_perigee_deg":85.4432,"mean_anomaly_deg":274.7015,"bstar":0.00012659,"rev_number":14805,"period_min":108.94024638077,"perigee_km":1175.6863180895,"apogee_km":1179.8239246151,"semimajor_km":7555.8921213523,"source":"CELESTRAK","updated_at":"2026-05-25T13:38:22.743979Z"}}